Location: Unspecified
(0.0000°N, 0.0000°E)
Time: 00:30:06
(UTC+00:00)

CZ-3B DEB - Pass Details

Date: 26 July 2024
Orbit: 943 x 41621 km, 24.9° (Epoch: 17 July)

Event Time Altitude Azimuth Distance (km) Brightness Sun altitude
Rises 18:10:22 0° 225° (SW) 4,206 ? -0.9°
Reaches altitude 10° 18:14:01 10° 204° (SSW) 2,735 ? -1.8°
Maximum altitude 18:17:47 19° 154° (SSE) 2,108 ? -2.6°
Drops below altitude 10° 18:22:14 10° 106° (ESE) 3,293 ? -3.7°
Enters shadow 18:25:58 - 91° (E) 4,884 ? -4.6°
